Погода в Судаково

Россия / Калужская область     54°23′05″N   36°51′17″E
темп.,
°C
ветер,
м/с
пор.,
м/с
влажн.,
%
обл.,
%
осадки,
мм/ч
давл.,
гПа
погр.,
м
18 апреля, вс
вс1800:00+9всв3891100 3.3 1017426
03:00+6ю4796100 4.9 1018497
06:00+6св2295100 5.3 1018165
09:00+7всв3384100 6.1 1019584
12:00+8св4480100 0.2 1019712
15:00+7св568590 0.3 1020612
18:00+7св5785100 0.0 1020743
21:00+7св5108587 0.1 1021487
19 апреля, пн
пн1900:00+6св599499 1.1 1021367
03:00+5св51095100 1.4 1021409
06:00+6св51093100 1.6 1021586
09:00+5всв6893100 1.9 1022680
12:00+5св61090100 0.4 1022799
15:00+4всв71095100 0.6 1023865
18:00+3св61297100 1.4 1023865
21:00+4всв71195100 1.6 1022982
20 апреля, вт
вт2000:00+3всв61297100 0.8 1022667
03:00+2всв61197100 1.9 1021517
06:00+2всв51097100 0.4 1020450
09:00+2всв51097100 0.8 1019432
12:00+4всв51197100 0.1 1018477
15:00+5всв71294100 0.1 1016616
18:00+3всв61297100 0.1 1014695
21:00+2всв71598100 3.6 1010717
21 апреля, ср
ср2100:00+1св71699100 11.0 1005855
03:00+3всв613100100 21.8 999469
06:00+6вюв614100100 2.4 996414
09:00+2ю61198100 2.8 998470
12:00+2юз81597100 0.3 1001671
15:00+3зюз81392100 0.4 1005983
18:00+5зюз7138788 0.1 10091056
21:00+4юз51292100 0.2 1011425
22 апреля, чт
чт2200:00+3ююз5139275 0.0 1013347
03:00+3ююз5139257 0.1 1014410
06:00+3ююз499568 0.0 1015240
09:00+7юз478457 0.0 1017463
12:00+10ююз567470 0.2 10171010
15:00+10ююз6878100 1.6 10171063
18:00+11ю597865 0.2 1017722
21:00+7ююв41190100 0.7 1017294